Preview of NWS' New Version of Forecast
This preview is not operational and should not be used for support decisions.

Regional Weather Roundup (RWR)

Issued by National Weather Service (NWS)

                            
000
ASUS46 KSEW 220110
RWRWA 

WASHINGTON REGIONAL WEATHER ROUNDUP
NATIONAL WEATHER SERVICE SEATTLE WA
600 PM PDT WED AUG 21 2019

NOTE:"FAIR" INDICATES FEW OR NO CLOUDS BELOW 12,000 FEET WITH NO 
SIGNIFICANT WEATHER AND/OR OBSTRUCTIONS TO VISIBILITY.

WAZ507-509-555>559-220200-
SEATTLE, TACOMA, EVERETT, AND VICINITY
  
CITY           SKY/WX    TMP DP  RH WIND       PRES   REMARKS
EVERETT        CLOUDY    63  59  87 W6        29.99R                  
BOEING FIELD   LGT RAIN  67  61  81 VRB3      29.96F                  
RENTON         LGT RAIN  67  64  90 CALM      29.96S                  
SEATAC AIRPORT LGT RAIN  65  62  90 W6        29.97S FOG              
JBLM-MCCHORD   LGT RAIN  68  63  83 MISG      29.96S                  
PUYALLUP       CLOUDY    66  66 100 CALM      29.97S                  
BREMERTON      CLOUDY    65  61  87 CALM      29.96S                  
JBLM-FT LEWIS  CLOUDY    67  67 100 S5        29.95F                  
TACOMA NARROWS CLOUDY    65  63  93 SW3       29.96S                  
$$
 
WAZ001-503-506-510-514-515-220200-
NORTH INTERIOR
  
CITY           SKY/WX    TMP DP  RH WIND       PRES   REMARKS
BELLINGHAM     PTSUNNY   65  59  81 S9G16     29.95F                  
FRIDAY HARBOR  CLOUDY    61  57  87 S6        29.97S                  
EASTSOUND      CLOUDY    63  61  94 S12G17    29.93F                  
PORT ANGELES   CLOUDY    58  52  80 W13G21    30.00R                  
EDIZ HOOK      CLOUDY    59  51  75 W16G22    29.99S                  
PORT TOWNSEND  CLOUDY    61  59  94 NW6       29.97S                  
NAS WHIDBEY    CLOUDY    64  59  83 SW12      30.01S FOG              
ARLINGTON      LGT RAIN  63  61  94 CALM      29.98S FOG              
BURLINGTON     PTSUNNY   63  61  94 S3        29.97S FOG              
$$
 
WAZ020-022-039-040-504-511-512-220200-
SOUTHWEST INTERIOR
  
CITY           SKY/WX    TMP DP  RH WIND       PRES   REMARKS
SHELTON        CLOUDY    68  62  81 SW8       29.93F                  
OLYMPIA        CLOUDY    68  62  81 VRB5      29.95F                  
CHEHALIS       PTSUNNY   66  66 100 S6        29.97S FOG              
KELSO          RAIN      65  64  97 S5        29.99S FOG              
VANCOUVER      LGT RAIN  65  62  90 CALM      29.98S FOG              
SCAPPOOSE, OR  LGT RAIN  66  64  93 SE3       29.97S FOG              
PORTLAND, OR   LGT RAIN  66  61  84 CALM      29.99R FOG              
$$
 
WAZ021-516-517-220200-
WASHINGTON COAST
  
CITY           SKY/WX    TMP DP  RH WIND       PRES   REMARKS
FORKS          MOSUNNY   63  52  67 NW8       30.02R                  
HOQUIAM        PTSUNNY   64  57  78 NW14G24   29.98S                  
ASTORIA, OR    CLOUDY    63  58  83 NW13      30.01R                  
$$
 
WAZ019-023-024-040-567>569-220200-
CASCADE MOUNTAINS AND COLUMBIA GORGE
  
CITY           SKY/WX    TMP DP  RH WIND       PRES   REMARKS
STAMPEDE PASS  CLOUDY    56  54  93 VRB5      30.02F                  
TROUTDALE, OR  LGT RAIN  66  62  87 CALM      29.98S FOG              
HOOD RIVER, OR CLOUDY    66  59  77 W5        29.96S                  
THE DALLES, OR PTSUNNY   71  61  70 NW7       29.93F                  
$$

WAZ026-027-041>044-520-521-220200-
EAST SLOPES
  
CITY           SKY/WX    TMP DP  RH WIND       PRES   REMARKS
OMAK           CLOUDY    81  49  32 SE7       29.79R                  
WENATCHEE      LGT RAIN  74  54  49 NW12      29.85R                  
ELLENSBURG     CLOUDY    71  56  58 NW16      29.91S                  
YAKIMA         CLOUDY    75  55  49 E3        29.90R                  
SUNNYSIDE ARPT RAIN      67  62  83 CALM      29.93R                  
YAKIMA TC      MOCLDY    73  54  50 S5        29.89S                  
$$

WAZ028-034-035-220200-
COLUMBIA BASIN
  
CITY           SKY/WX    TMP DP  RH WIND       PRES   REMARKS
EPHRATA        CLOUDY    78  54  43 SW9       29.83F                  
MOSES LAKE     CLOUDY    79  55  43 SW13      29.85R                  
PASCO          CLOUDY    82  53  36 W29G39    29.86R                  
RICHLAND ARPT  CLOUDY    78  57  49 SW28G44   29.87R HAZE             
HERMISTON, OR  LGT RAIN  68  61  78 W23G37    29.93R                  
$$

WAZ036>038-220200-
NORTHEAST WASHINGTON
  
CITY           SKY/WX    TMP DP  RH WIND       PRES   REMARKS
SPOKANE GEIGER CLOUDY    82  38  20 W17       29.85S                  
SPOKANE FELTS  PTSUNNY   83  37  19 W10G18    29.82S                  
FAIRCHILD AFB  CLOUDY    80  36  21 W16       29.86S                  
COEURDALENE,ID PTSUNNY   83  41  22 W13       29.83F                  
DEER PARK      PTSUNNY   83  35  18 SW12      29.83S                  
$$

WAZ029>033-220200-
SOUTHEAST WASHINGTON
  
CITY           SKY/WX    TMP DP  RH WIND       PRES   REMARKS
PULLMAN        CLOUDY    79  38  22 W15       29.90S                  
LEWISTON, ID   CLOUDY    85  35  16 NW21G30   29.80S                  
WALLA WALLA    CLOUDY    80  52  37 SW20G26   29.90R                  
PENDLETON, OR  CLOUDY    69  56  62 W29G41    29.90S HAZE             
$$